Location: Sternwarte ZA, Rosenfeld-Brittheim
(48.2889°N, 8.6789°E)
Time: 20:40:35
(UTC+02:00)

ISS - Pass Details

Date: 21 July 2019
Orbit: 409 x 418 km, 51.6° (Epoch: 20 July)

Event Time Altitude Azimuth Distance (km) Brightness Sun altitude
Rises 22:10:21 0° 247° (WSW) 2,349 0.4 -7.9°
Reaches altitude 10° 22:12:26 10° 248° (WSW) 1,487 -0.6 -8.2°
Maximum altitude 22:15:46 88° 334° (NNW) 420 -3.8 -8.6°
Drops below altitude 10° 22:19:07 10° 68° (ENE) 1,488 -1.2 -9.0°
Sets 22:21:13 0° 69° (ENE) 2,350 -0.2 -9.2°
